period_start,C,m1,H,J0,J1,J2,J3,J4,J5,JA,JB,JC,JD,JJ,JK,JN,#
2018-09-30 00:03:45,0.00,0.00,0.00,26.47,31.05,32.98,-0.15,-4.00,1029.16,2010.01,3710.78,3029.06,3479.99,0.00,0.00,0.00,0001 0000 0000 A000 420008
2018-09-30 00:08:46,0.00,0.00,0.00,26.47,31.05,33.05,-0.15,-4.00,1029.20,2010.04,3710.96,3029.15,3479.99,0.00,0.00,0.00,0001 0000 0000 A000 420008
2018-09-30 00:13:47,0.00,0.00,0.00,26.47,31.05,33.03,-0.15,-4.00,1029.26,2010.05,3710.96,3029.14,3480.00,0.00,0.00,0.00,0000 0000 0000 A000 020008
2018-09-30 00:18:49,0.00,0.00,0.00,26.47,31.05,32.99,-0.15,-4.00,1029.11,2010.05,3710.98,3029.36,3480.00,0.00,0.00,0.00,0001 0000 0000 A000 420008
2018-09-30 00:23:50,0.00,0.00,0.00,26.47,31.05,33.00,-0.15,-4.00,1028.99,2010.02,3710.96,3029.20,3480.00,0.00,0.00,0.00,0001 0000 0000 A000 420008
2018-09-30 00:28:51,0.00,0.00,0.00,26.48,31.05,33.06,-0.15,-4.00,1028.87,2010.03,3710.95,3029.13,3480.00,0.00,0.00,0.00,0001 0000 0000 A000 420008
2018-09-30 00:33:52,0.00,0.00,0.00,26.49,31.05,33.04,-0.15,-4.00,1028.84,2010.01,3710.92,3029.09,3480.00,0.00,0.00,0.00,0001 0000 0000 A000 420008
2018-09-30 00:38:53,0.00,0.00,0.00,26.49,31.05,32.97,-0.15,-4.00,1028.84,2010.02,3710.94,3029.08,3480.00,0.00,0.00,0.00,0001 0000 0000 A000 420008
2018-09-30 00:43:54,0.00,0.00,0.00,26.47,31.05,33.02,-0.15,-4.00,1028.83,2010.04,3710.97,3029.16,3480.00,0.00,0.00,0.00,0001 0000 0000 A000 420008
2018-09-30 00:48:56,0.00,0.00,0.00,26.49,31.05,33.00,-0.15,-4.00,1028.84,2010.01,3710.88,3029.05,3480.00,0.00,0.00,0.00,0000 0000 0000 A000 020008
2018-09-30 00:53:57,0.00,0.00,0.00,26.50,31.05,33.03,-0.15,-4.00,1028.83,2010.00,3710.70,3029.01,3479.99,0.00,0.00,0.00,0000 0000 0000 A000 020008
2018-09-30 00:58:59,0.00,0.00,0.00,26.52,31.05,33.00,-0.15,-4.00,1028.83,2010.00,3710.52,3029.01,3479.98,0.00,0.00,0.00,0000 0000 0000 A000 020008
2018-09-30 01:04:00,0.00,0.00,0.00,26.52,31.06,33.04,-0.15,-4.00,1028.82,2010.01,3710.46,3029.01,3479.99,0.00,0.00,0.00,0000 0000 0000 A000 020008
2018-09-30 01:09:01,0.00,0.00,0.00,26.55,31.07,33.00,-0.15,-4.01,1028.79,2010.00,3710.27,3029.00,3479.98,0.00,0.00,0.00,0000 0000 0000 A000 020008
2018-09-30 01:14:02,0.00,0.00,0.00,26.55,31.07,33.02,-0.15,-4.00,1028.57,2010.00,3710.47,3029.02,3479.99,0.00,0.00,0.00,0000 0000 0000 A000 020008
2018-09-30 01:19:03,0.00,0.00,0.00,26.57,31.07,33.03,-0.15,-4.00,1028.44,2010.00,3710.24,3029.00,3479.98,0.00,0.00,0.00,0000 0000 0000 A000 020008
2018-09-30 01:24:04,0.00,0.00,0.00,26.57,31.07,32.97,-0.15,-4.00,1028.41,2010.00,3710.18,3029.00,3479.97,0.00,0.00,0.00,0000 0000 0000 A000 020008
2018-09-30 01:29:05,0.00,0.00,0.00,26.59,31.07,33.01,-0.15,-4.00,1028.35,2010.00,3710.16,3029.00,3479.96,0.00,0.00,0.00,0000 0000 0000 A000 020008
2018-09-30 01:34:07,0.00,0.00,0.00,26.60,31.07,33.08,-0.15,-4.01,1028.35,2010.00,3710.23,3029.00,3479.97,0.00,0.00,0.00,0000 0000 0000 A000 020008
2018-09-30 01:39:08,0.00,0.00,0.00,26.62,31.08,33.09,-0.15,-4.00,1028.35,2010.00,3710.24,3029.00,3479.98,0.00,0.00,0.00,0000 0000 0000 A000 020008
2018-09-30 01:44:09,0.00,0.00,0.00,26.63,31.10,33.07,-0.15,-4.00,1028.35,2010.00,3710.03,3029.00,3479.85,0.00,0.00,0.00,0000 0000 0000 A000 020008
2018-09-30 01:49:10,0.00,0.00,0.00,26.65,31.10,33.09,-0.15,-4.00,1028.34,2010.00,3710.02,3029.00,3479.65,0.00,0.00,0.00,0000 0000 0000 A000 020008
2018-09-30 01:54:11,0.00,0.00,0.00,26.66,31.10,33.10,-0.15,-4.00,1028.34,2010.00,3710.00,3029.00,3479.31,0.00,0.00,0.00,0000 0000 0000 A000 020008
2018-09-30 01:59:13,0.00,0.00,0.00,26.67,31.10,33.16,-0.15,-4.00,1028.34,2010.00,3710.00,3028.99,3479.32,0.00,0.00,0.00,0000 0000 0000 A000 020008
2018-09-30 02:04:14,0.00,0.00,0.00,26.69,31.11,33.09,-0.15,-4.00,1028.32,2010.00,3710.00,3028.98,3479.32,0.00,0.00,0.00,0000 0000 0000 A000 020008
2018-09-30 02:09:15,0.00,0.00,0.00,26.70,31.12,33.14,-0.15,-4.00,1028.29,2010.00,3710.00,3028.99,3479.17,0.00,0.00,0.00,0000 0000 0000 A000 020008
2018-09-30 02:14:16,0.00,0.00,0.00,26.72,31.12,33.10,-0.15,-4.01,1028.29,2009.99,3710.00,3028.99,3479.20,0.00,0.00,0.00,0000 0000 0000 A000 020008
2018-09-30 02:19:17,0.00,0.00,0.00,26.73,31.13,33.14,-0.15,-4.00,1028.22,2009.99,3710.00,3028.97,3479.03,0.00,0.00,0.00,0000 0000 0000 A000 020008
2018-09-30 02:24:19,0.00,0.00,0.00,26.75,31.15,33.16,-0.15,-4.00,1028.31,2009.99,3709.99,3028.96,3479.03,0.00,0.00,0.00,0000 0000 0000 A000 020008
2018-09-30 02:29:20,0.00,0.00,0.00,26.76,31.15,33.15,-0.15,-4.00,1028.31,2009.98,3709.99,3028.89,3479.01,0.00,0.00,0.00,0000 0000 0000 A000 020008
2018-09-30 02:34:21,0.00,0.00,0.00,26.77,31.15,33.18,-0.15,-4.01,1028.29,2009.97,3709.98,3028.80,3479.00,0.00,0.00,0.00,0000 0000 0000 A000 020008
2018-09-30 02:39:22,0.00,0.00,0.00,26.79,31.17,33.18,-0.15,-4.01,1028.28,2009.96,3709.96,3028.56,3479.00,0.00,0.00,0.00,0000 0000 0000 A000 020008
2018-09-30 02:44:23,0.00,0.00,0.00,26.81,31.17,33.20,-0.15,-4.01,1028.17,2009.96,3709.94,3028.40,3479.00,0.00,0.00,0.00,0000 0000 0000 A000 020008
2018-09-30 02:49:24,0.00,0.00,0.00,26.82,31.18,33.21,-0.15,-4.05,1028.18,2009.89,3709.84,3028.18,3479.00,0.00,0.00,0.00,0000 0000 0000 A000 020008
2018-09-30 02:54:26,0.00,0.00,0.00,26.84,31.20,33.25,-0.15,-4.05,1028.15,2009.81,3709.51,3028.06,3478.98,0.00,0.00,0.00,0000 0000 0000 A000 020008
2018-09-30 02:59:27,0.00,0.00,0.00,26.85,31.20,33.26,-0.15,-4.05,1027.99,2009.52,3709.20,3028.02,3478.95,0.00,0.00,0.00,0000 0000 0000 A000 020008
2018-09-30 03:04:28,0.00,0.00,0.00,26.87,31.22,33.28,-0.15,-4.03,1027.89,2009.28,3709.05,3028.01,3478.65,0.00,0.00,0.00,0000 0000 0000 A000 020008
2018-09-30 03:09:29,0.00,0.00,0.00,26.89,31.22,33.26,-0.15,-4.08,1027.93,2009.13,3709.01,3028.00,3478.35,0.00,0.00,0.00,0000 0000 0000 A000 020008
2018-09-30 03:14:30,0.00,0.00,0.00,26.90,31.24,33.29,-0.15,-4.13,1027.90,2009.14,3709.01,3028.00,3478.35,0.00,0.00,0.00,0000 0000 0000 A000 020008
2018-09-30 03:19:32,0.00,0.00,0.00,26.91,31.25,33.28,-0.15,-4.03,1027.89,2009.07,3709.01,3028.00,3478.13,0.00,0.00,0.00,0000 0000 0000 A000 020008
2018-09-30 03:24:33,0.00,0.00,0.00,26.92,31.26,33.32,-0.15,-4.01,1027.87,2009.07,3709.00,3028.00,3478.06,0.00,0.00,0.00,0000 0000 0000 A000 020008
2018-09-30 03:29:34,0.00,0.00,0.00,26.94,31.27,33.34,-0.15,-4.02,1027.85,2009.02,3709.00,3028.00,3478.02,0.00,0.00,0.00,0000 0000 0000 A000 020008
2018-09-30 03:34:35,0.00,0.00,0.00,26.95,31.28,33.32,-0.15,-4.00,1027.86,2009.01,3709.00,3027.98,3478.01,0.00,0.00,0.00,0000 0000 0000 A000 020008
2018-09-30 03:39:36,0.00,0.00,0.00,26.96,31.30,33.32,-0.15,-4.05,1027.86,2009.01,3709.00,3027.97,3478.00,0.00,0.00,0.00,0000 0000 0000 A000 020008
2018-09-30 03:44:37,0.00,0.00,0.00,26.87,31.30,33.27,-0.15,-4.07,1027.86,2009.00,3708.99,3027.95,3478.00,0.00,0.00,0.00,0000 0000 0000 A000 020008
2018-09-30 03:49:38,0.00,0.00,0.00,26.80,31.31,33.03,-0.15,-4.00,1027.85,2009.00,3708.97,3027.93,3478.00,0.00,0.00,0.00,0000 0000 0000 A000 020008
2018-09-30 03:54:40,0.00,0.00,0.00,26.70,31.31,32.82,-0.15,-4.00,1027.85,2009.00,3708.97,3027.92,3478.00,0.00,0.00,0.00,0000 0000 0000 A000 020008
2018-09-30 03:59:41,0.00,0.00,0.00,26.67,31.30,32.60,-0.15,-4.00,1027.84,2009.01,3708.99,3027.97,3478.03,0.00,0.00,0.00,0000 0000 0000 A000 020008
2018-09-30 04:04:42,0.00,0.00,0.00,26.64,31.27,32.35,-0.15,-4.00,1027.79,2009.05,3709.00,3027.99,3478.20,0.00,0.00,0.00,0000 0000 0000 A000 020008
2018-09-30 04:09:43,0.00,0.00,0.00,26.61,31.24,32.20,-0.15,-4.00,1027.46,2009.26,3709.10,3028.00,3478.85,0.00,0.00,0.00,0000 0000 0000 A000 020008
2018-09-30 04:14:44,0.00,0.00,0.00,26.57,31.20,32.02,-0.15,-4.00,1027.38,2009.70,3709.53,3028.21,3478.98,0.00,0.00,0.00,0000 0000 0000 A000 020008
2018-09-30 04:19:45,0.00,0.00,0.00,26.54,31.15,31.88,-0.15,-4.00,1027.36,2009.96,3709.96,3028.86,3479.03,0.00,0.00,0.00,0000 0000 0000 A000 020008
2018-09-30 04:24:47,0.00,0.00,0.00,26.51,31.09,31.77,-0.15,-4.00,1027.36,2009.99,3710.04,3028.99,3479.77,0.00,0.00,0.00,0000 0000 0000 A000 020008
2018-09-30 04:29:48,0.00,0.00,0.00,26.48,31.03,31.63,-0.15,-3.98,1027.36,2010.01,3710.75,3029.27,3479.99,0.00,0.00,0.00,0001 0000 0000 A000 420008
2018-09-30 04:34:49,0.00,0.00,0.00,26.46,30.96,31.53,-0.16,-3.97,1027.27,2010.09,3710.99,3029.83,3480.14,0.00,0.00,0.00,0000 0000 0000 A000 020008
2018-09-30 04:39:50,0.00,0.00,0.00,26.45,30.89,31.44,-0.15,-3.91,1027.18,2010.76,3711.05,3029.99,3480.90,0.00,0.00,0.00,0000 0000 0000 A000 020008
2018-09-30 04:44:51,0.00,0.00,0.00,26.43,30.82,31.35,-0.16,-3.84,1026.98,2010.98,3711.73,3030.33,3481.04,0.00,0.00,0.00,0000 0000 0000 A000 020008
2018-09-30 04:49:53,0.00,0.00,0.00,26.42,30.75,31.29,-0.15,-3.89,1026.90,2010.99,3712.01,3030.97,3481.71,0.00,0.00,0.00,0000 0000 0000 A000 020008
2018-09-30 04:54:54,0.00,0.00,0.00,26.40,30.69,31.22,-0.16,-3.82,1026.88,2011.14,3712.49,3031.16,3482.02,0.00,0.00,0.00,0000 0000 0000 A000 020008
2018-09-30 04:59:55,0.00,0.00,0.00,26.40,30.62,31.19,-0.16,-3.77,1026.87,2011.83,3712.99,3031.89,3482.75,0.00,0.00,0.00,0000 0000 0000 A000 020008
2018-09-30 05:04:56,0.00,0.00,0.00,26.39,30.55,31.14,-0.15,-3.81,1026.87,2011.98,3713.32,3032.03,3483.02,0.00,0.00,0.00,0000 0000 0000 A000 020008
2018-09-30 05:09:57,0.00,0.00,0.00,26.37,30.49,31.09,-0.16,-3.88,1026.85,2012.02,3713.97,3032.67,3483.71,0.00,0.00,0.00,0000 0000 0000 A000 020008
2018-09-30 05:14:59,0.00,0.00,0.00,26.37,30.42,31.08,-0.16,-3.87,1026.68,2012.32,3714.27,3032.99,3484.00,0.00,0.00,0.00,0000 0000 0000 A000 020008
2018-09-30 05:20:00,0.00,0.00,0.00,26.37,30.37,31.03,-0.17,-3.81,1026.47,2012.91,3714.94,3033.20,3484.53,0.00,0.00,0.00,0000 0000 0000 A000 020008
2018-09-30 05:25:01,0.00,0.00,0.00,26.37,30.31,31.03,-0.17,-3.79,1026.44,2012.99,3715.02,3033.91,3484.99,0.00,0.00,0.00,0000 0000 0000 A000 020008
2018-09-30 05:30:03,0.00,0.00,0.00,26.37,30.25,30.99,-0.17,-3.77,1026.41,2013.00,3715.59,3034.01,3485.32,0.00,0.00,0.00,0000 0000 0000 A000 020008
2018-09-30 05:35:04,0.00,0.00,0.00,26.38,30.20,30.97,-0.17,-3.75,1026.39,2013.19,3715.99,3034.40,3485.96,0.00,0.00,0.00,0000 0000 0000 A000 020008
2018-09-30 05:40:05,0.00,0.00,0.00,26.38,30.15,30.96,-0.17,-3.75,1026.41,2013.79,3716.08,3034.95,3486.02,0.00,0.00,0.00,0000 0000 0000 A000 020008
2018-09-30 05:45:06,0.00,0.00,0.00,26.39,30.10,30.93,-0.18,-3.75,1026.40,2013.99,3716.85,3035.00,3486.63,0.00,0.00,0.00,0000 0000 0000 A000 020008
2018-09-30 05:50:07,0.00,0.00,0.00,26.40,30.06,30.91,-0.17,-3.76,1026.39,2013.99,3716.99,3035.48,3486.99,0.00,0.00,0.00,0000 0000 0000 A000 020008
2018-09-30 05:55:09,0.00,0.00,0.00,26.40,30.02,30.91,-0.17,-3.75,1026.38,2014.00,3717.15,3035.96,3487.16,0.00,0.00,0.00,0000 0000 0000 A000 020008
2018-09-30 06:00:10,0.00,0.00,0.00,26.40,29.98,30.89,-0.18,-3.76,1026.38,2014.16,3717.81,3035.99,3487.88,0.00,0.00,0.00,0000 0000 0000 A000 020008
2018-09-30 06:05:11,0.00,0.00,0.00,26.40,29.94,30.92,-0.18,-3.78,1026.38,2014.63,3717.99,3036.14,3487.99,0.00,0.00,0.00,0000 0000 0000 A000 020008
2018-09-30 06:10:12,0.00,0.00,0.00,26.40,29.91,30.86,-0.18,-3.77,1026.38,2014.97,3718.04,3036.73,3488.06,0.00,0.00,0.00,0000 0000 0000 A000 020008
2018-09-30 06:15:14,0.00,0.00,0.00,26.40,29.87,30.89,-0.18,-3.75,1026.38,2014.99,3718.75,3036.99,3488.78,0.00,0.00,0.00,0000 0000 0000 A000 020008
2018-09-30 06:20:15,0.00,0.00,0.00,26.40,29.84,30.86,-0.18,-3.75,1026.38,2015.01,3718.99,3037.01,3488.99,0.00,0.00,0.00,0000 0000 0000 A000 020008
2018-09-30 06:25:16,0.00,0.00,0.00,26.40,29.81,30.86,-0.18,-3.75,1026.37,2015.09,3719.00,3037.16,3489.00,0.00,0.00,0.00,0000 0000 0000 A000 020008
2018-09-30 06:30:17,0.00,0.00,0.00,26.40,29.78,30.83,-0.18,-3.75,1026.36,2015.42,3719.01,3037.57,3489.06,0.00,0.00,0.00,0000 0000 0000 A000 020008
2018-09-30 06:35:18,0.00,0.00,0.00,26.41,29.77,30.84,-0.18,-3.76,1026.32,2015.85,3719.35,3037.94,3489.63,0.00,0.00,0.00,0000 0000 0000 A000 020008
2018-09-30 06:40:19,0.00,0.00,0.00,26.40,29.75,30.84,-0.18,-3.75,1026.21,2015.96,3719.87,3037.99,3489.97,0.00,0.00,0.00,0000 0000 0000 A000 020008
2018-09-30 06:45:21,0.00,0.00,0.00,26.40,29.72,30.84,-0.18,-3.75,1026.29,2015.98,3719.97,3037.99,3489.99,0.00,0.00,0.00,0000 0000 0000 A000 020008
2018-09-30 06:50:22,0.00,0.00,0.00,26.42,29.70,30.82,-0.18,-3.75,1026.22,2015.99,3719.99,3038.00,3489.99,0.00,0.00,0.00,0000 0000 0000 A000 020008
2018-09-30 06:55:23,0.00,0.00,0.00,26.42,29.68,30.84,-0.18,-3.76,1026.07,2015.99,3720.01,3038.09,3490.06,0.00,0.00,0.00,0000 0000 0000 A000 020008
2018-09-30 07:00:24,0.00,0.00,0.00,26.42,29.66,30.83,-0.18,-3.76,1026.02,2015.99,3720.04,3038.54,3490.40,0.00,0.00,0.00,0000 0000 0000 A000 020008
2018-09-30 07:05:25,0.00,0.00,0.00,26.42,29.65,30.85,-0.17,-3.76,1025.96,2015.99,3720.16,3038.89,3490.80,0.00,0.00,0.00,0000 0000 0000 A000 020008
2018-09-30 07:10:26,0.00,0.00,0.00,26.42,29.63,30.86,-0.17,-3.76,1025.92,2016.00,3720.72,3038.97,3490.98,0.00,0.00,0.00,0000 0000 0000 A000 020008
2018-09-30 07:15:28,0.00,0.00,0.00,26.42,29.62,30.81,-0.18,-3.75,1025.91,2016.02,3720.94,3038.99,3490.99,0.00,0.00,0.00,0000 0000 0000 A000 020008
2018-09-30 07:20:29,0.00,0.00,0.00,26.42,29.60,30.82,-0.17,-3.75,1025.90,2016.19,3720.99,3039.00,3490.99,0.00,0.00,0.00,0000 0000 0000 A000 020008
2018-09-30 07:25:30,0.00,0.00,0.00,26.42,29.59,30.84,-0.19,-3.75,1025.90,2016.40,3720.99,3039.03,3491.02,0.00,0.00,0.00,0000 0000 0000 A000 020008
2018-09-30 07:30:31,0.00,0.00,0.00,26.42,29.57,30.85,-0.19,-3.75,1025.91,2016.66,3720.99,3039.11,3491.06,0.00,0.00,0.00,0000 0000 0000 A000 020008
2018-09-30 07:35:33,0.00,0.00,0.00,26.42,29.56,30.82,-0.19,-3.75,1025.95,2016.82,3720.99,3039.27,3491.15,0.00,0.00,0.00,0000 0000 0000 A000 020008
2018-09-30 07:40:34,0.00,0.00,0.00,26.42,29.55,30.87,-0.19,-3.76,1025.93,2016.91,3721.01,3039.60,3491.51,0.00,0.00,0.00,0000 0000 0000 A000 020008
2018-09-30 07:45:35,0.00,0.00,0.00,26.41,29.55,30.81,-0.19,-3.76,1025.91,2016.97,3721.11,3039.92,3491.94,0.00,0.00,0.00,0000 0000 0000 A000 020008
2018-09-30 07:50:36,0.00,0.00,0.00,26.40,29.53,30.82,-0.18,-3.76,1025.90,2016.98,3721.29,3039.95,3491.96,0.00,0.00,0.00,0000 0000 0000 A000 020008
2018-09-30 07:55:37,0.00,0.00,0.00,26.40,29.52,30.80,-0.19,-3.75,1025.90,2016.99,3721.72,3039.98,3491.99,0.00,0.00,0.00,0000 0000 0000 A000 020008
2018-09-30 08:00:38,0.00,0.00,0.00,26.40,29.52,30.83,-0.20,-3.75,1025.90,2016.99,3721.89,3039.99,3491.99,0.00,0.00,0.00,0000 0000 0000 A000 020008
2018-09-30 08:05:40,0.00,0.00,0.00,26.40,29.50,30.82,-0.19,-3.75,1025.89,2016.99,3721.96,3039.99,3491.99,0.00,0.00,0.00,0000 0000 0000 A000 020008
2018-09-30 08:10:41,0.00,0.00,0.00,26.40,29.50,30.81,-0.20,-3.75,1025.88,2016.99,3721.97,3039.99,3491.99,0.00,0.00,0.00,0000 0000 0000 A000 020008
2018-09-30 08:15:42,0.00,0.00,0.00,26.40,29.50,30.80,-0.19,-3.76,1025.86,2016.99,3721.99,3039.99,3492.00,0.00,0.00,0.00,0000 0000 0000 A000 020008
2018-09-30 08:20:43,0.00,0.00,0.00,26.40,29.49,30.79,-0.20,-3.76,1025.73,2016.99,3721.99,3039.99,3492.01,0.00,0.00,0.00,0000 0000 0000 A000 020008
2018-09-30 08:25:44,0.00,0.00,0.00,26.40,29.47,30.80,-0.20,-3.76,1025.78,2016.99,3721.99,3040.00,3492.04,0.00,0.00,0.00,0000 0000 0000 A000 020008
2018-09-30 08:30:45,0.00,0.00,0.00,26.40,29.47,30.80,-0.19,-3.75,1025.66,2017.00,3721.99,3040.00,3492.05,0.00,0.00,0.00,0000 0000 0000 A000 020008
2018-09-30 08:35:46,0.00,0.00,0.00,26.40,29.47,30.80,-0.19,-3.77,1025.58,2017.00,3721.99,3040.01,3492.04,0.00,0.00,0.00,0000 0000 0000 A000 020008
2018-09-30 08:40:48,0.00,0.00,0.00,26.40,29.47,30.84,-0.20,-3.76,1025.43,2017.01,3721.99,3040.01,3492.24,0.00,0.00,0.00,0000 0000 0000 A000 020008
2018-09-30 08:45:49,0.00,0.00,0.00,26.40,29.45,30.78,-0.20,-3.76,1025.42,2017.01,3722.01,3040.02,3492.29,0.00,0.00,0.00,0000 0000 0000 A000 020008
2018-09-30 08:50:50,0.00,0.00,0.00,26.40,29.45,30.80,-0.19,-3.75,1025.41,2017.00,3722.00,3040.03,3492.34,0.00,0.00,0.00,0000 0000 0000 A000 020008
2018-09-30 08:55:51,0.00,0.00,0.00,26.40,29.45,30.81,-0.20,-3.77,1025.41,2017.01,3722.00,3040.04,3492.39,0.00,0.00,0.00,0000 0000 0000 A000 020008
2018-09-30 09:00:52,0.00,0.00,0.00,26.39,29.45,30.77,-0.20,-3.75,1025.41,2017.01,3722.01,3040.05,3492.50,0.00,0.00,0.00,0000 0000 0000 A000 020008
2018-09-30 09:05:54,0.00,0.00,0.00,26.38,29.45,30.83,-0.20,-3.75,1025.41,2017.02,3722.00,3040.05,3492.64,0.00,0.00,0.00,0000 0000 0000 A000 020008
2018-09-30 09:10:55,0.00,0.00,0.00,26.37,29.44,30.79,-0.19,-3.76,1025.40,2017.02,3722.02,3040.13,3492.82,0.00,0.00,0.00,0000 0000 0000 A000 020008
2018-09-30 09:15:56,0.00,0.00,0.00,26.37,29.43,30.82,-0.20,-3.75,1025.38,2017.04,3722.02,3040.17,3492.86,0.00,0.00,0.00,0000 0000 0000 A000 020008
2018-09-30 09:20:58,0.00,0.00,0.00,26.37,29.42,30.83,-0.19,-3.75,1025.37,2017.05,3722.07,3040.54,3492.94,0.00,0.00,0.00,0000 0000 0000 A000 020008
2018-09-30 09:25:59,0.00,0.00,0.00,26.37,29.42,30.77,-0.19,-3.75,1025.19,2017.09,3722.07,3040.51,3492.97,0.00,0.00,0.00,0000 0000 0000 A000 020008
2018-09-30 09:31:00,0.00,0.00,0.00,26.36,29.42,30.76,-0.20,-3.75,1025.10,2017.13,3722.28,3040.79,3492.98,0.00,0.00,0.00,0000 0000 0000 A000 020008
2018-09-30 09:36:01,0.00,0.00,0.00,26.35,29.42,30.78,-0.19,-3.74,1024.95,2017.08,3722.15,3040.65,3492.99,0.00,0.00,0.00,0000 0000 0000 A000 020008
2018-09-30 09:41:02,0.00,0.00,0.00,26.35,29.42,30.78,-0.20,-3.75,1024.93,2017.11,3722.38,3040.83,3492.98,0.00,0.00,0.00,0000 0000 0000 A000 020008
2018-09-30 09:46:04,0.00,0.00,0.00,26.35,29.41,30.77,-0.19,-3.75,1024.92,2017.16,3722.38,3040.85,3492.97,0.00,0.00,0.00,0000 0000 0000 A000 020008
2018-09-30 09:51:05,0.00,0.00,0.00,26.35,29.40,30.78,-0.19,-3.75,1024.92,2017.19,3722.28,3040.83,3492.98,0.00,0.00,0.00,0000 0000 0000 A000 020008
2018-09-30 09:56:07,0.00,0.00,0.00,26.35,29.40,30.78,-0.20,-3.75,1024.92,2017.16,3722.29,3040.81,3492.98,0.00,0.00,0.00,0000 0000 0000 A000 020008
2018-09-30 10:01:08,0.00,0.00,0.00,26.34,29.40,30.77,-0.20,-3.75,1024.90,2017.17,3722.32,3040.84,3492.99,0.00,0.00,0.00,0000 0000 0000 A000 020008
2018-09-30 10:06:09,0.00,0.00,0.00,26.34,29.40,30.76,-0.20,-3.76,1024.76,2017.16,3722.41,3040.88,3492.99,0.00,0.00,0.00,0000 0000 0000 A000 020008
2018-09-30 10:11:10,0.00,0.00,0.00,26.33,29.40,30.80,-0.20,-3.77,1024.61,2017.26,3722.63,3040.91,3492.99,0.00,0.00,0.00,0000 0000 0000 A000 020008
2018-09-30 10:16:11,0.00,0.00,0.00,26.32,29.40,30.78,-0.20,-3.75,1024.46,2017.48,3722.82,3040.97,3492.99,0.00,0.00,0.00,0000 0000 0000 A000 020008
2018-09-30 10:21:12,0.00,0.00,0.00,26.32,29.39,30.77,-0.20,-3.75,1024.44,2017.48,3722.72,3040.97,3492.99,0.00,0.00,0.00,0000 0000 0000 A000 020008
2018-09-30 10:26:14,0.00,0.00,0.00,26.33,29.37,30.74,-0.20,-3.75,1024.43,2017.66,3722.89,3040.99,3492.99,0.00,0.00,0.00,0000 0000 0000 A000 020008
2018-09-30 10:31:15,0.00,0.00,0.00,26.32,29.37,30.75,-0.20,-3.75,1024.43,2017.66,3722.90,3040.98,3492.99,0.00,0.00,0.00,0000 0000 0000 A000 020008
2018-09-30 10:36:16,0.00,0.00,0.00,26.32,29.37,30.76,-0.20,-3.75,1024.33,2017.43,3722.82,3040.96,3492.99,0.00,0.00,0.00,0000 0000 0000 A000 020008
2018-09-30 10:41:17,0.00,0.00,0.00,26.32,29.37,30.75,-0.19,-3.75,1024.06,2017.55,3722.87,3040.97,3492.99,0.00,0.00,0.00,0000 0000 0000 A000 020008
2018-09-30 10:46:18,0.00,0.00,0.00,26.32,29.37,30.74,-0.20,-3.77,1023.96,2017.74,3722.95,3040.99,3493.00,0.00,0.00,0.00,0000 0000 0000 A000 020008
2018-09-30 10:51:19,0.00,0.00,0.00,26.32,29.37,30.73,-0.20,-3.77,1023.95,2017.90,3722.98,3040.99,3493.01,0.00,0.00,0.00,0000 0000 0000 A000 020008
2018-09-30 10:56:21,0.00,0.00,0.00,26.30,29.36,30.75,-0.20,-3.75,1023.94,2017.91,3722.98,3040.99,3493.00,0.00,0.00,0.00,0000 0000 0000 A000 020008
2018-09-30 11:01:22,0.00,0.00,0.00,26.30,29.35,30.75,-0.20,-3.75,1023.94,2017.95,3722.99,3040.99,3493.05,0.00,0.00,0.00,0000 0000 0000 A000 020008
2018-09-30 11:06:23,0.00,0.00,0.00,26.30,29.35,30.76,-0.20,-3.76,1023.94,2017.95,3722.99,3040.99,3493.05,0.00,0.00,0.00,0000 0000 0000 A000 020008
2018-09-30 11:11:24,0.00,0.00,0.00,26.30,29.35,30.72,-0.19,-3.75,1023.94,2017.94,3722.99,3040.99,3493.01,0.00,0.00,0.00,0000 0000 0000 A000 020008
2018-09-30 11:16:26,0.00,0.00,0.00,26.30,29.35,30.74,-0.20,-3.76,1023.93,2017.94,3722.98,3040.99,3493.03,0.00,0.00,0.00,0000 0000 0000 A000 020008
2018-09-30 11:21:27,0.00,0.00,0.00,26.30,29.35,30.71,-0.19,-3.75,1023.84,2017.95,3722.99,3040.99,3493.03,0.00,0.00,0.00,0000 0000 0000 A000 020008
2018-09-30 11:26:28,0.00,0.00,0.00,26.30,29.35,30.74,-0.20,-3.75,1023.61,2017.95,3722.99,3040.99,3493.08,0.00,0.00,0.00,0000 0000 0000 A000 020008
2018-09-30 11:31:28,0.00,0.00,0.00,26.29,29.35,30.72,-0.20,-3.75,1023.50,2017.97,3722.99,3040.99,3493.23,0.00,0.00,0.00,0000 0000 0000 A000 020008
2018-09-30 11:36:30,0.00,0.00,0.00,26.29,29.34,30.69,-0.20,-3.75,1023.47,2017.99,3722.99,3040.99,3493.30,0.00,0.00,0.00,0000 0000 0000 A000 020008
2018-09-30 11:41:31,0.00,0.00,0.00,26.28,29.33,30.69,-0.20,-3.75,1023.46,2017.98,3722.99,3041.00,3493.50,0.00,0.00,0.00,0000 0000 0000 A000 020008
2018-09-30 11:46:32,0.00,0.00,0.00,26.27,29.32,30.70,-0.20,-3.77,1023.45,2017.99,3722.99,3041.02,3493.61,0.00,0.00,0.00,0000 0000 0000 A000 020008
2018-09-30 11:51:34,0.00,0.00,0.00,26.27,29.32,30.71,-0.20,-3.75,1023.45,2017.99,3723.00,3041.01,3493.68,0.00,0.00,0.00,0000 0000 0000 A000 020008
2018-09-30 11:56:35,0.00,0.00,0.00,26.26,29.32,30.72,-0.20,-3.75,1023.45,2017.99,3723.01,3041.01,3493.85,0.00,0.00,0.00,0000 0000 0000 A000 020008
2018-09-30 12:01:36,0.00,0.00,0.00,26.26,29.32,30.71,-0.20,-3.75,1023.45,2017.99,3723.01,3041.02,3493.77,0.00,0.00,0.00,0000 0000 0000 A000 020008
2018-09-30 12:06:37,0.00,0.00,0.00,26.25,29.32,30.71,-0.20,-3.75,1023.41,2017.99,3723.00,3041.00,3493.77,0.00,0.00,0.00,0000 0000 0000 A000 020008
2018-09-30 12:11:39,0.00,0.00,0.00,26.25,29.32,30.72,-0.20,-3.75,1023.29,2017.99,3723.03,3041.05,3493.93,0.00,0.00,0.00,0000 0000 0000 A000 020008
2018-09-30 12:16:40,0.00,0.00,0.00,26.23,29.30,30.70,-0.20,-3.75,1023.11,2017.99,3723.18,3041.26,3493.99,0.00,0.00,0.00,0000 0000 0000 A000 020008
2018-09-30 12:21:41,0.00,0.00,0.00,26.22,29.30,30.70,-0.20,-3.76,1023.03,2017.99,3723.07,3041.20,3493.97,0.00,0.00,0.00,0000 0000 0000 A000 020008
2018-09-30 12:26:42,0.00,0.00,0.00,26.22,29.30,30.68,-0.20,-3.75,1022.99,2017.99,3723.08,3041.18,3493.98,0.00,0.00,0.00,0000 0000 0000 A000 020008
2018-09-30 12:31:43,0.00,0.00,0.00,26.22,29.30,30.68,-0.20,-3.75,1022.97,2017.99,3723.16,3041.35,3493.99,0.00,0.00,0.00,0000 0000 0000 A000 020008
2018-09-30 12:36:45,0.00,0.00,0.00,26.20,29.30,30.66,-0.20,-3.76,1022.96,2017.99,3723.09,3041.23,3493.98,0.00,0.00,0.00,0000 0000 0000 A000 020008
2018-09-30 12:41:46,0.00,0.00,0.00,26.17,29.29,30.64,-0.20,-3.80,1022.96,2017.99,3723.09,3041.32,3493.98,0.00,0.00,0.00,0000 0000 0000 A000 020008
2018-09-30 12:46:47,0.00,0.00,0.00,26.12,29.28,30.63,-0.20,-3.78,1022.96,2017.99,3723.18,3041.44,3493.99,0.00,0.00,0.00,0000 0000 0000 A000 020008
2018-09-30 12:51:49,0.00,0.00,0.00,26.08,29.28,30.62,-0.20,-3.80,1022.96,2017.99,3723.20,3041.49,3493.98,0.00,0.00,0.00,0000 0000 0000 A000 020008
2018-09-30 12:56:50,0.00,0.00,0.00,26.07,29.28,30.65,-0.20,-3.77,1022.96,2017.99,3723.17,3041.45,3493.99,0.00,0.00,0.00,0000 0000 0000 A000 020008
2018-09-30 13:01:51,0.00,0.00,0.00,26.05,29.28,30.67,-0.20,-3.75,1022.93,2017.99,3723.12,3041.32,3493.98,0.00,0.00,0.00,0000 0000 0000 A000 020008
2018-09-30 13:06:53,0.00,0.00,0.00,26.04,29.29,30.65,-0.20,-3.77,1022.79,2017.99,3723.11,3041.40,3493.98,0.00,0.00,0.00,0000 0000 0000 A000 020008
2018-09-30 13:11:54,0.00,0.00,0.00,26.03,29.29,30.66,-0.19,-3.75,1022.61,2017.99,3723.16,3041.43,3493.98,0.00,0.00,0.00,0000 0000 0000 A000 020008
2018-09-30 13:16:55,0.00,0.00,0.00,26.02,29.30,30.67,-0.20,-3.76,1022.51,2017.99,3723.23,3041.51,3493.99,0.00,0.00,0.00,0000 0000 0000 A000 020008
2018-09-30 13:21:57,0.00,0.00,0.00,26.00,29.30,30.68,-0.20,-3.74,1022.50,2017.99,3723.28,3041.55,3493.99,0.00,0.00,0.00,0000 0000 0000 A000 020008